EW6246 Jayuya PR US current weather conditions

sailwx.info

Wind from 067 at 0 knots gusting 3

Air temperature 22.2° C
Dewpoint 19.9° C

Last reported at 2019-Dec-08 22:07 UTC.
Time now 2019-Dec-08 23:11 UTC

Location: N 18°11' W 066°37'.
View on Google Maps.

See reports from other nearby stations

  
Tides and Currents Weather Stations Pressure Air Temp Water Temp Dewpoint Dewpoint Depression Visibility Wind Speed Wind Dir Waves Ship Positions
date/time (UTC)wind fromknots sea level pressurealtimeterstation pressurevisibilityair tempwater tempwave heightnotes
2019-Dec-08 22:07 067 0 gusting 3 22.2
2019-Dec-08 22:02 073 1 gusting 3 22.8
2019-Dec-08 21:57 047 0 gusting 5 22.8
2019-Dec-08 21:52 016 1 gusting 5 22.8
2019-Dec-08 21:47 359 1 gusting 5 22.8
2019-Dec-08 21:42 017 3 gusting 5 23.3
2019-Dec-08 21:37 043 1 gusting 5 23.3
2019-Dec-08 21:32 041 0 gusting 5 23.3
2019-Dec-08 21:27 038 0 gusting 6 23.3
2019-Dec-08 21:22 021 1 gusting 6 23.3
2019-Dec-08 21:17 043 3 gusting 6 23.3
2019-Dec-08 21:12 040 2 gusting 6 23.3
2019-Dec-08 21:07 042 3 gusting 6 23.9
2019-Dec-08 21:02 339 3 gusting 6 23.9
2019-Dec-08 20:57 359 2 gusting 6 23.9
2019-Dec-08 20:52 095 5 gusting 8 23.9
2019-Dec-08 20:47 036 2 gusting 8 23.9
2019-Dec-08 20:42 104 5 gusting 8 23.9
2019-Dec-08 20:37 051 4 gusting 8 23.9
2019-Dec-08 20:32 070 4 gusting 8 23.9
2019-Dec-08 20:27 044 4 gusting 8 24.4
2019-Dec-08 20:22 054 6 gusting 8 25.0
2019-Dec-08 20:17 043 6 gusting 8 25.0
2019-Dec-08 20:12 037 4 gusting 8 25.0
2019-Dec-08 19:57 034 3 gusting 8 24.4
2019-Dec-08 19:52 035 4 gusting 8 25.6
2019-Dec-08 19:47 021 8 gusting 8 25.6
2019-Dec-08 19:42 042 6 gusting 7 25.6
2019-Dec-08 19:37 029 7 gusting 7 25.6
2019-Dec-08 19:32 344 3 gusting 6 25.6
2019-Dec-08 19:27 068 4 gusting 6 25.6
2019-Dec-08 19:22 017 3 gusting 6 25.6
2019-Dec-08 19:17 014 6 gusting 6 25.6
2019-Dec-08 19:12 044 5 gusting 6 25.6
2019-Dec-08 19:07 033 3 gusting 6 25.6
2019-Dec-08 19:02 018 5 gusting 6 25.6
2019-Dec-08 18:57 016 6 gusting 6 25.0
2019-Dec-08 18:52 053 2 gusting 6 26.1
2019-Dec-08 18:47 041 6 gusting 6 26.7
2019-Dec-08 18:42 007 5 gusting 6 26.7
2019-Dec-08 18:37 046 5 gusting 6 25.6
2019-Dec-08 18:32 311 6 gusting 6 26.7
2019-Dec-08 18:27 052 1 gusting 6 26.1
2019-Dec-08 18:22 031 3 gusting 6 26.1
2019-Dec-08 18:17 013 4 gusting 6 26.7
2019-Dec-08 18:12 007 2 gusting 6 26.1
2019-Dec-08 18:07 039 4 gusting 6 26.7
2019-Dec-08 18:02 328 3 gusting 6 26.7
2019-Dec-08 17:57 037 5 gusting 6 26.7
2019-Dec-08 17:52 025 3 gusting 6 27.2
2019-Dec-08 17:47 120 4 gusting 6 27.2
2019-Dec-08 17:42 022 1 gusting 6 26.7
2019-Dec-08 17:37 039 6 gusting 6 26.7
2019-Dec-08 17:32 054 6 gusting 6 26.7
2019-Dec-08 17:27 016 3 gusting 6 26.7
2019-Dec-08 17:22 001 3 gusting 6 26.7
2019-Dec-08 17:17 053 4 gusting 6 26.7
2019-Dec-08 17:12 019 5 gusting 6 26.7
2019-Dec-08 17:07 011 5 gusting 6 26.7
2019-Dec-08 17:02 002 3 gusting 6 27.2
2019-Dec-08 16:57 059 5 gusting 6 26.1
2019-Dec-08 16:52 025 6 gusting 6 26.7
2019-Dec-08 16:47 065 3 gusting 6 26.7
2019-Dec-08 16:42 043 6 gusting 6 26.1
2019-Dec-08 16:37 055 2 gusting 5 26.7
2019-Dec-08 16:32 041 5 gusting 5 26.1
2019-Dec-08 16:27 042 5 gusting 5 26.7
2019-Dec-08 16:22 013 3 gusting 5 26.7
2019-Dec-08 16:17 049 2 gusting 5 26.7
2019-Dec-08 16:12 024 3 gusting 5 26.1
2019-Dec-08 16:07 127 2 gusting 5 26.7
2019-Dec-08 16:02 028 2 gusting 5 26.1
2019-Dec-08 15:57 016 2 gusting 5 26.1
2019-Dec-08 15:52 026 2 gusting 5 26.1
2019-Dec-08 15:47 031 4 gusting 5 26.1
2019-Dec-08 15:42 043 1 gusting 5 26.1
2019-Dec-08 15:37 053 5 gusting 5 25.6
2019-Dec-08 15:32 341 3 gusting 5 25.6
2019-Dec-08 15:27 048 5 gusting 5 26.1
2019-Dec-08 15:22 357 3 gusting 5 26.1
2019-Dec-08 15:17 356 1 gusting 5 25.6
2019-Dec-08 15:12 017 2 gusting 5 25.0
2019-Dec-08 15:07 030 5 gusting 5 26.1
2019-Dec-08 15:02 029 5 gusting 5 26.1
2019-Dec-08 14:57 040 1 gusting 2 26.1
2019-Dec-08 14:52 020 1 gusting 2 26.1
2019-Dec-08 14:47 303 1 gusting 2 25.6
2019-Dec-08 14:42 288 1 gusting 2 25.6
2019-Dec-08 14:37 026 1 gusting 2 25.0
2019-Dec-08 14:32 035 25.0
2019-Dec-08 14:27 271 2 gusting 2 25.0
2019-Dec-08 14:22 017 1 gusting 2 25.0
2019-Dec-08 14:17 012 1 gusting 2 25.0
2019-Dec-08 14:12 319 2 gusting 2 24.4
2019-Dec-08 14:07 179 24.4
2019-Dec-08 14:02 327 1 gusting 2 24.4
2019-Dec-08 13:57 301 2 gusting 2 24.4
2019-Dec-08 13:52 015 0 gusting 2 23.9
2019-Dec-08 13:47 218 0 gusting 2 23.9
2019-Dec-08 13:42 333 1 gusting 2 23.9
2019-Dec-08 13:37 325 2 gusting 2 23.9
2019-Dec-08 13:32 056 0 gusting 1 23.9
2019-Dec-08 13:27 340 0 gusting 1 23.9
2019-Dec-08 13:22 027 23.9
2019-Dec-08 13:17 247 1 gusting 1 23.9
2019-Dec-08 13:12 355 23.3
2019-Dec-08 13:07 178 1 gusting 1 23.3
2019-Dec-08 13:02 122 0 gusting 1 22.8
2019-Dec-08 12:57 062 22.8
2019-Dec-08 12:52 272 0 gusting 1 22.8
2019-Dec-08 12:47 067 22.8
2019-Dec-08 12:42 317 1 gusting 1 22.2
2019-Dec-08 12:37 048 22.2
2019-Dec-08 12:32 114 1 gusting 1 22.8
2019-Dec-08 12:27 069 22.2
2019-Dec-08 12:22 138 1 gusting 1 22.2
2019-Dec-08 12:17 138 0 gusting 1 21.7
2019-Dec-08 12:12 111 0 gusting 1 21.7
2019-Dec-08 12:07 122 1 gusting 1 21.1
2019-Dec-08 12:02 131 1 gusting 1 21.1
2019-Dec-08 11:57 291 0 gusting 1 20.0
2019-Dec-08 11:52 147 1 gusting 1 18.9
2019-Dec-08 11:47 192 1 gusting 1 18.9
2019-Dec-08 11:42 207 0 gusting 1 18.3
2019-Dec-08 11:37 141 1 gusting 1 18.3
2019-Dec-08 11:32 207 1 gusting 1 18.3
2019-Dec-08 11:27 171 1 gusting 1 18.3
2019-Dec-08 11:22 165 0 gusting 1 18.3
2019-Dec-08 11:17 243 18.3
2019-Dec-08 11:12 150 0 gusting 1 18.3
2019-Dec-08 11:07 145 0 gusting 1 18.3
2019-Dec-08 11:02 167 1 gusting 1 18.3
2019-Dec-08 10:57 195 1 gusting 1 18.3
2019-Dec-08 10:52 070 1 gusting 1 18.3
2019-Dec-08 10:47 155 1 gusting 1 18.3
2019-Dec-08 10:42 225 0 gusting 1 18.3
2019-Dec-08 10:37 181 0 gusting 1 18.3
2019-Dec-08 10:32 184 0 gusting 2 18.3
2019-Dec-08 10:27 174 0 gusting 2 18.3
2019-Dec-08 10:22 223 0 gusting 2 18.3
2019-Dec-08 10:17 163 1 gusting 2 18.3
2019-Dec-08 10:12 217 1 gusting 2 18.3
2019-Dec-08 10:07 146 1 gusting 2 18.3
2019-Dec-08 10:02 215 0 gusting 2 18.3
2019-Dec-08 09:57 136 0 gusting 2 18.3
2019-Dec-08 09:52 170 1 gusting 2 18.3
2019-Dec-08 09:47 177 1 gusting 2 18.3
2019-Dec-08 09:42 225 0 gusting 2 18.3
2019-Dec-08 09:37 180 1 gusting 2 18.3
2019-Dec-08 09:32 215 1 gusting 2 18.3
2019-Dec-08 09:27 158 2 gusting 2 18.3
2019-Dec-08 09:22 208 1 gusting 1 18.3
2019-Dec-08 09:17 178 1 gusting 1 18.3
2019-Dec-08 09:12 161 1 gusting 1 18.3
2019-Dec-08 09:07 174 1 gusting 1 18.3
2019-Dec-08 09:02 118 0 gusting 1 18.3
2019-Dec-08 08:57 165 1 gusting 1 18.3
2019-Dec-08 08:52 175 0 gusting 1 18.3
2019-Dec-08 08:47 142 1 gusting 1 18.3
2019-Dec-08 08:42 131 0 gusting 1 18.3
2019-Dec-08 08:37 167 1 gusting 1 18.3
2019-Dec-08 08:32 162 1 gusting 1 18.3
2019-Dec-08 08:27 123 0 gusting 1 18.3
2019-Dec-08 08:22 202 1 gusting 1 18.3
2019-Dec-08 08:17 149 0 gusting 1 18.3
2019-Dec-08 08:12 132 1 gusting 1 18.9
2019-Dec-08 08:07 190 0 gusting 1 18.9
2019-Dec-08 08:02 224 0 gusting 1 18.9
2019-Dec-08 07:57 180 0 gusting 1 18.9
2019-Dec-08 07:52 178 1 gusting 1 18.9
2019-Dec-08 07:47 199 1 gusting 1 18.9
2019-Dec-08 07:42 224 0 gusting 1 18.9
2019-Dec-08 07:37 223 1 gusting 1 18.9
2019-Dec-08 07:32 165 0 gusting 1 18.9
2019-Dec-08 07:27 165 0 gusting 1 19.4
2019-Dec-08 07:22 195 0 gusting 1 19.4
2019-Dec-08 07:17 174 1 gusting 1 19.4
2019-Dec-08 07:12 205 1 gusting 1 18.9
2019-Dec-08 07:07 223 1 gusting 1 18.9
2019-Dec-08 07:02 172 1 gusting 1 18.9
2019-Dec-08 06:57 102 18.9
2019-Dec-08 06:52 215 0 gusting 1 19.4
2019-Dec-08 06:47 214 1 gusting 1 19.4
2019-Dec-08 06:42 212 0 gusting 1 19.4
2019-Dec-08 06:37 134 1 gusting 1 19.4
2019-Dec-08 06:32 095 19.4
2019-Dec-08 06:27 190 0 gusting 2 19.4
2019-Dec-08 06:22 178 0 gusting 2 19.4
2019-Dec-08 06:17 214 0 gusting 2 19.4
2019-Dec-08 06:12 162 1 gusting 2 19.4
2019-Dec-08 06:07 037 19.4
2019-Dec-08 06:02 176 0 gusting 2 19.4
2019-Dec-08 05:57 190 0 gusting 2 19.4
2019-Dec-08 05:52 139 0 gusting 2 19.4
2019-Dec-08 05:47 148 1 gusting 2 19.4
2019-Dec-08 05:42 164 0 gusting 2 19.4
2019-Dec-08 05:37 165 0 gusting 2 20.0
2019-Dec-08 05:32 135 1 gusting 2 20.0
2019-Dec-08 05:27 164 0 gusting 2 20.0
2019-Dec-08 05:22 144 2 gusting 2 20.0
2019-Dec-08 05:17 223 1 gusting 1 20.0
2019-Dec-08 05:12 177 1 gusting 2 20.0
2019-Dec-08 05:07 187 0 gusting 2 20.0
2019-Dec-08 05:02 164 0 gusting 2 20.0
2019-Dec-08 04:57 171 0 gusting 2 20.0
2019-Dec-08 04:52 220 1 gusting 2 20.0
2019-Dec-08 04:47 156 0 gusting 2 20.0
2019-Dec-08 04:42 223 0 gusting 2 20.0
2019-Dec-08 04:37 181 1 gusting 2 20.0
2019-Dec-08 04:32 153 1 gusting 2 20.0
2019-Dec-08 04:27 298 1 gusting 2 20.0
2019-Dec-08 04:22 220 1 gusting 2 20.0
2019-Dec-08 04:17 095 0 gusting 2 20.0
2019-Dec-08 04:12 298 20.0
2019-Dec-08 04:08 126 2 gusting 2 20.0
2019-Dec-08 03:57 103 0 gusting 1 20.0
2019-Dec-08 03:52 219 1 gusting 1 20.0
2019-Dec-08 03:47 335 20.0
2019-Dec-08 03:42 159 1 gusting 1 20.0
2019-Dec-08 03:37 137 1 gusting 1 20.0
2019-Dec-08 03:32 185 1 gusting 1 20.0
2019-Dec-08 03:27 126 1 gusting 1 20.0
2019-Dec-08 03:22 162 1 gusting 1 20.0
2019-Dec-08 03:17 135 1 gusting 1 20.0
2019-Dec-08 03:12 166 0 gusting 1 20.0
2019-Dec-08 03:07 197 0 gusting 1 20.0
2019-Dec-08 03:02 112 1 gusting 1 20.0
2019-Dec-08 02:57 177 0 gusting 1 20.0
2019-Dec-08 02:52 169 1 gusting 1 20.0
2019-Dec-08 02:47 169 0 gusting 1 20.0
2019-Dec-08 02:42 152 0 gusting 1 20.0
2019-Dec-08 02:37 113 0 gusting 1 20.0
2019-Dec-08 02:32 084 20.0
2019-Dec-08 02:27 158 0 gusting 1 20.0
2019-Dec-08 02:22 301 20.6
2019-Dec-08 02:17 153 0 gusting 1 20.6
2019-Dec-08 02:12 094 0 gusting 1 20.6
2019-Dec-08 02:07 063 20.6
2019-Dec-08 02:02 147 0 gusting 1 20.6
2019-Dec-08 01:57 155 0 gusting 1 20.6
2019-Dec-08 01:52 140 1 gusting 1 20.6
2019-Dec-08 01:47 178 1 gusting 1 20.6
2019-Dec-08 01:42 175 1 gusting 1 20.6
2019-Dec-08 01:37 152 1 gusting 1 20.6
2019-Dec-08 01:32 183 0 gusting 1 20.6
2019-Dec-08 01:27 145 1 gusting 1 21.1
2019-Dec-08 01:22 172 0 gusting 1 21.1
2019-Dec-08 01:17 171 1 gusting 1 21.1
2019-Dec-08 01:12 151 0 gusting 1 21.1
2019-Dec-08 01:07 191 0 gusting 1 21.1
2019-Dec-08 01:02 171 1 gusting 1 21.1
2019-Dec-08 00:57 159 0 gusting 1 21.1
2019-Dec-08 00:52 191 0 gusting 1 21.1
2019-Dec-08 00:47 145 0 gusting 1 21.1
2019-Dec-08 00:42 140 1 gusting 2 21.7
2019-Dec-08 00:37 192 0 gusting 2 21.7
2019-Dec-08 00:32 107 21.7
2019-Dec-08 00:27 148 1 gusting 2 21.7
2019-Dec-08 00:22 222 0 gusting 2 21.7
2019-Dec-08 00:17 128 0 gusting 2 21.7
2019-Dec-08 00:12 142 0 gusting 2 22.2
2019-Dec-08 00:07 035 22.2
2019-Dec-08 00:02 077 22.2
2019-Dec-07 23:57 099 22.2
2019-Dec-07 23:52 045 22.2
2019-Dec-07 23:47 044 22.2
2019-Dec-07 23:42 353 22.2
2019-Dec-07 23:37 086 2 gusting 2 22.2
2019-Dec-07 23:32 352 22.2
2019-Dec-07 23:27 356 22.2
2019-Dec-07 23:22 005 22.2
2019-Dec-07 23:17 220 22.2
2019-Dec-07 23:12 052 22.2
2019-Dec-07 23:07 109 0 gusting 2 22.2
2019-Dec-07 23:02 106 0 gusting 2 22.2
2019-Dec-07 22:57 084 0 gusting 2 22.8
2019-Dec-07 22:52 073 22.8
2019-Dec-07 22:47 034 0 gusting 2 22.8
2019-Dec-07 22:42 073 22.8
2019-Dec-07 22:37 101 22.8
2019-Dec-07 22:32 095 0 gusting 3 22.8
2019-Dec-07 22:27 104 0 gusting 3 22.8
2019-Dec-07 22:22 038 22.8
2019-Dec-07 22:17 139 1 gusting 3 22.8
2019-Dec-07 22:12 016 2 gusting 3 23.3
2019-Dec-07 22:07 032 1 gusting 3 23.3
2019-Dec-07 22:02 018 23.3
2019-Dec-07 21:57 103 0 gusting 3 23.3
2019-Dec-07 21:52 032 0 gusting 3 23.3
2019-Dec-07 21:47 057 0 gusting 3 23.3
2019-Dec-07 21:42 085 1 gusting 3 23.3
2019-Dec-07 21:37 155 0 gusting 3 23.9
2019-Dec-07 21:32 103 0 gusting 3 23.9
2019-Dec-07 21:27 040 3 gusting 3 23.9
2019-Dec-07 21:22 038 2 gusting 3 23.9
2019-Dec-07 21:17 069 1 gusting 3 23.9
2019-Dec-07 21:12 069 1 gusting 3 24.4
2019-Dec-07 21:07 038 1 gusting 3 24.4
2019-Dec-07 21:02 025 1 gusting 3 24.4
2019-Dec-07 20:57 025 1 gusting 3 25.0
2019-Dec-07 20:52 089 2 gusting 3 25.0
2019-Dec-07 20:47 082 1 gusting 3 25.0
2019-Dec-07 20:42 054 2 gusting 3 25.0
2019-Dec-07 20:37 298 25.0
2019-Dec-07 20:32 291 2 gusting 3 25.0
2019-Dec-07 20:27 165 3 gusting 4 25.0
2019-Dec-07 20:22 138 1 gusting 4 25.6
2019-Dec-07 20:17 009 25.6
2019-Dec-07 20:12 008 25.6
2019-Dec-07 20:07 039 0 gusting 4 25.6
2019-Dec-07 20:04 042 0 gusting 4 25.6
2019-Dec-07 19:52 059 2 gusting 4 26.1
2019-Dec-07 19:47 034 2 gusting 4 26.7
2019-Dec-07 19:42 045 2 gusting 4 26.7
2019-Dec-07 19:37 035 26.7
2019-Dec-07 19:32 041 1 gusting 4 27.2
2019-Dec-07 19:27 138 2 gusting 4 27.8
2019-Dec-07 19:22 171 4 gusting 4 27.2
2019-Dec-07 19:17 180 4 gusting 4 26.1
2019-Dec-07 19:12 138 2 gusting 3 27.8
2019-Dec-07 19:07 238 3 gusting 3 26.7
2019-Dec-07 19:02 008 1 gusting 3 27.2
2019-Dec-07 18:57 029 0 gusting 3 27.2
2019-Dec-07 18:52 293 1 gusting 3 26.7
2019-Dec-07 18:47 005 27.2
2019-Dec-07 18:42 301 0 gusting 3 27.2
2019-Dec-07 18:37 336 0 gusting 3 26.1
2019-Dec-07 18:32 287 1 gusting 3 26.1
2019-Dec-07 18:27 231 0 gusting 3 26.1
2019-Dec-07 18:22 022 1 gusting 3 26.1
2019-Dec-07 18:17 348 1 gusting 3 26.1
2019-Dec-07 18:12 315 3 gusting 3 26.7
2019-Dec-07 18:07 330 1 gusting 3 27.2
2019-Dec-07 18:02 094 0 gusting 3 27.8
2019-Dec-07 17:57 306 2 gusting 3 27.8
2019-Dec-07 17:52 299 3 gusting 3 27.8
2019-Dec-07 17:47 038 27.8
2019-Dec-07 17:42 334 3 gusting 3 27.8
2019-Dec-07 17:37 053 0 gusting 1 27.8
2019-Dec-07 17:32 198 0 gusting 1 27.8
2019-Dec-07 17:27 292 0 gusting 1 27.2
2019-Dec-07 17:22 087 26.7
2019-Dec-07 17:17 322 26.7
2019-Dec-07 17:12 043 26.1
2019-Dec-07 17:07 035 25.6
2019-Dec-07 17:02 138 0 gusting 1 25.0
2019-Dec-07 16:57 152 1 gusting 1 25.6
2019-Dec-07 16:52 161 0 gusting 1 25.6
2019-Dec-07 16:47 147 1 gusting 1 25.6
2019-Dec-07 16:42 042 25.6
2019-Dec-07 16:37 068 26.1
2019-Dec-07 16:32 253 0 gusting 1 26.7
2019-Dec-07 16:27 313 1 gusting 1 26.1
2019-Dec-07 16:22 005 25.6
2019-Dec-07 16:17 078 26.1
2019-Dec-07 16:12 318 25.6
2019-Dec-07 16:07 010 0 gusting 2 25.6
2019-Dec-07 16:02 006 1 gusting 2 25.6
2019-Dec-07 15:57 313 0 gusting 2 26.1
2019-Dec-07 15:52 083 0 gusting 2 26.1
2019-Dec-07 15:47 008 1 gusting 2 26.1
2019-Dec-07 15:42 115 0 gusting 2 25.6
2019-Dec-07 15:37 016 25.6
2019-Dec-07 15:32 125 0 gusting 2 25.0
2019-Dec-07 15:27 022 25.6
2019-Dec-07 15:22 297 1 gusting 2 26.1
2019-Dec-07 15:17 298 2 gusting 2 25.6
2019-Dec-07 15:12 031 0 gusting 1 26.1
2019-Dec-07 15:07 070 25.0
2019-Dec-07 15:02 029 1 gusting 3 25.0
2019-Dec-07 14:57 135 1 gusting 3 25.0
2019-Dec-07 14:52 357 25.0
2019-Dec-07 14:47 334 0 gusting 3 24.4
2019-Dec-07 14:42 027 24.4
2019-Dec-07 14:37 310 24.4
2019-Dec-07 14:32 283 1 gusting 3 25.0
2019-Dec-07 14:27 327 1 gusting 3 24.4
2019-Dec-07 14:22 003 0 gusting 3 25.6
2019-Dec-07 14:17 022 25.0
2019-Dec-07 14:12 042 24.4
2019-Dec-07 14:07 005 24.4
2019-Dec-07 14:02 296 3 gusting 3 24.4
2019-Dec-07 13:57 338 2 gusting 2 25.0
2019-Dec-07 13:52 302 2 gusting 2 25.0
2019-Dec-07 13:47 305 1 gusting 2 25.0
2019-Dec-07 13:42 024 0 gusting 2 23.9
2019-Dec-07 13:37 285 2 gusting 2 23.9
2019-Dec-07 13:32 013 1 gusting 1 23.9
2019-Dec-07 13:27 010 1 gusting 1 23.9
2019-Dec-07 13:22 313 1 gusting 1 23.9
2019-Dec-07 13:17 23.9
2019-Dec-07 13:12 326 1 gusting 1 23.9
2019-Dec-07 13:07 347 23.9
2019-Dec-07 13:02 312 1 gusting 1 23.3
2019-Dec-07 12:57 007 0 gusting 1 23.9
2019-Dec-07 12:52 010 23.3
2019-Dec-07 12:47 018 0 gusting 1 22.8
2019-Dec-07 12:42 045 1 gusting 1 22.8
2019-Dec-07 12:37 011 23.3
2019-Dec-07 12:32 244 0 gusting 1 22.8
2019-Dec-07 12:27 120 0 gusting 1 22.2
2019-Dec-07 12:22 232 0 gusting 1 22.2
2019-Dec-07 12:17 113 0 gusting 1 21.7
2019-Dec-07 12:12 129 0 gusting 1 21.7
2019-Dec-07 12:07 100 0 gusting 1 21.7
2019-Dec-07 12:02 155 1 gusting 1 21.1
2019-Dec-07 11:57 155 1 gusting 1 20.6
2019-Dec-07 11:52 163 1 gusting 1 18.9
2019-Dec-07 11:47 158 1 gusting 1 18.9
2019-Dec-07 11:37 222 1 gusting 1 18.9
2019-Dec-07 11:32 152 1 gusting 1 18.9
2019-Dec-07 11:27 155 1 gusting 1 18.3
2019-Dec-07 11:22 232 0 gusting 1 18.3
2019-Dec-07 11:17 221 1 gusting 1 18.3
2019-Dec-07 11:12 103 18.3
2019-Dec-07 11:07 124 1 gusting 1 18.3
2019-Dec-07 11:02 092 0 gusting 1 18.3
2019-Dec-07 10:57 054 0 gusting 1 18.3
2019-Dec-07 10:52 171 1 gusting 1 18.3
2019-Dec-07 10:47 155 1 gusting 1 18.3
2019-Dec-07 10:42 131 1 gusting 1 18.3
2019-Dec-07 10:37 116 1 gusting 1 18.3
2019-Dec-07 10:32 141 1 gusting 1 18.3
2019-Dec-07 10:27 164 1 gusting 1 18.3
2019-Dec-07 10:22 170 1 gusting 1 17.8
2019-Dec-07 10:17 152 1 gusting 1 17.8
2019-Dec-07 10:12 100 17.8
2019-Dec-07 10:07 141 1 gusting 1 17.8
2019-Dec-07 10:02 149 1 gusting 1 17.8
2019-Dec-07 09:57 205 0 gusting 1 17.8
2019-Dec-07 09:52 149 1 gusting 1 17.8
2019-Dec-07 09:47 089 17.8
2019-Dec-07 09:42 140 0 gusting 1 17.8
2019-Dec-07 09:37 192 1 gusting 1 17.8
2019-Dec-07 09:32 049 17.8
2019-Dec-07 09:27 181 0 gusting 1 17.8
2019-Dec-07 09:22 172 1 gusting 1 17.8
2019-Dec-07 09:17 133 0 gusting 1 17.8
2019-Dec-07 09:12 147 0 gusting 1 17.8
2019-Dec-07 09:07 177 1 gusting 1 17.8
2019-Dec-07 09:02 143 0 gusting 1 17.8
2019-Dec-07 08:57 172 0 gusting 1 17.2
2019-Dec-07 08:52 129 17.8
2019-Dec-07 08:47 133 1 gusting 1 17.8
2019-Dec-07 08:42 133 1 gusting 1 17.8
2019-Dec-07 08:37 065 17.8
2019-Dec-07 08:32 154 0 gusting 1 17.8
2019-Dec-07 08:27 108 0 gusting 1 17.8
2019-Dec-07 08:22 031 0 gusting 1 17.8
2019-Dec-07 08:17 048 17.8
2019-Dec-07 08:12 156 0 gusting 1 18.3
2019-Dec-07 08:07 185 1 gusting 1 17.8
2019-Dec-07 08:02 160 1 gusting 1 17.8
2019-Dec-07 07:57 045 18.3
2019-Dec-07 07:52 174 1 gusting 1 18.3
2019-Dec-07 07:47 083 1 gusting 1 18.3
2019-Dec-07 07:42 066 0 gusting 1 18.3
2019-Dec-07 07:37 139 1 gusting 1 18.3
2019-Dec-07 07:32 144 1 gusting 1 18.3
2019-Dec-07 07:27 113 0 gusting 1 18.3
2019-Dec-07 07:22 094 0 gusting 1 18.3
2019-Dec-07 07:17 176 1 gusting 1 18.9
2019-Dec-07 07:12 166 1 gusting 1 18.3
2019-Dec-07 07:07 155 0 gusting 1 18.3
2019-Dec-07 07:02 153 1 gusting 1 18.3
2019-Dec-07 06:57 234 0 gusting 1 18.3
2019-Dec-07 06:52 183 0 gusting 1 18.3
2019-Dec-07 06:47 142 1 gusting 1 17.8
2019-Dec-07 06:42 103 1 gusting 1 17.8
2019-Dec-07 06:37 068 0 gusting 1 17.8
2019-Dec-07 06:32 344 0 gusting 1 17.8
2019-Dec-07 06:27 111 17.8
2019-Dec-07 06:22 153 0 gusting 1 17.8
2019-Dec-07 06:17 140 1 gusting 1 18.3
2019-Dec-07 06:12 133 0 gusting 1 18.3
2019-Dec-07 06:07 212 1 gusting 1 18.3
2019-Dec-07 06:02 345 18.3
2019-Dec-07 05:57 137 1 gusting 1 18.3
2019-Dec-07 05:52 039 0 gusting 1 18.3
2019-Dec-07 05:47 168 1 gusting 1 18.3
2019-Dec-07 05:42 130 0 gusting 1 18.3
2019-Dec-07 05:37 140 1 gusting 1 18.3
2019-Dec-07 05:32 150 1 gusting 1 18.3
2019-Dec-07 05:27 145 1 gusting 1 17.8
2019-Dec-07 05:22 143 1 gusting 1 17.8
2019-Dec-07 05:17 154 1 gusting 1 17.8
2019-Dec-07 05:12 098 0 gusting 1 17.8
2019-Dec-07 05:07 079 17.8
2019-Dec-07 05:02 136 1 gusting 1 17.8
2019-Dec-07 04:57 108 0 gusting 1 17.8
2019-Dec-07 04:52 283 0 gusting 1 17.8
2019-Dec-07 04:47 066 0 gusting 1 17.8
2019-Dec-07 04:42 184 1 gusting 1 17.8
2019-Dec-07 04:37 326 17.8
2019-Dec-07 04:32 180 1 gusting 1 17.8
2019-Dec-07 04:27 117 0 gusting 1 17.8
2019-Dec-07 04:22 108 0 gusting 1 17.8
2019-Dec-07 04:17 072 17.8
2019-Dec-07 04:12 116 1 gusting 1 17.8
2019-Dec-07 04:07 017 0 gusting 1 17.8
2019-Dec-07 04:03 143 0 gusting 1 17.8
2019-Dec-07 03:52 059 0 gusting 1 17.8
2019-Dec-07 03:47 055 17.8
2019-Dec-07 03:42 238 0 gusting 1 17.8
2019-Dec-07 03:37 133 1 gusting 1 17.8
2019-Dec-07 03:32 342 18.3
2019-Dec-07 03:27 128 1 gusting 1 18.3
2019-Dec-07 03:22 044 0 gusting 1 18.3
2019-Dec-07 03:17 102 1 gusting 1 18.3
2019-Dec-07 03:12 167 0 gusting 1 18.3
2019-Dec-07 03:07 087 0 gusting 1 18.3
2019-Dec-07 03:02 144 1 gusting 1 18.3
2019-Dec-07 02:57 101 0 gusting 1 18.9
2019-Dec-07 02:52 074 18.9
2019-Dec-07 02:47 027 18.9
2019-Dec-07 02:42 022 18.9
2019-Dec-07 02:37 170 1 gusting 1 18.3
2019-Dec-07 02:32 160 1 gusting 1 18.3
2019-Dec-07 02:27 175 0 gusting 1 18.9
2019-Dec-07 02:22 092 0 gusting 1 18.9
2019-Dec-07 02:17 188 0 gusting 1 18.9
2019-Dec-07 02:12 049 18.9
2019-Dec-07 02:07 110 1 gusting 1 18.9
2019-Dec-07 02:02 104 0 gusting 1 18.9
2019-Dec-07 01:57 150 1 gusting 1 18.9
2019-Dec-07 01:52 152 0 gusting 1 18.9
2019-Dec-07 01:47 092 0 gusting 1 18.9
2019-Dec-07 01:42 147 1 gusting 1 18.9
2019-Dec-07 01:37 113 0 gusting 1 18.9
2019-Dec-07 01:32 061 19.4
2019-Dec-07 01:27 160 0 gusting 1 19.4
2019-Dec-07 01:22 137 1 gusting 1 19.4
2019-Dec-07 01:17 342 19.4
2019-Dec-07 01:12 156 0 gusting 1 19.4
2019-Dec-07 01:07 117 1 gusting 1 20.0
2019-Dec-07 01:02 143 1 gusting 1 20.0
2019-Dec-07 00:57 151 1 gusting 1 20.0
2019-Dec-07 00:52 152 0 gusting 1 19.4
2019-Dec-07 00:47 176 0 gusting 1 19.4
2019-Dec-07 00:42 164 1 gusting 1 19.4
2019-Dec-07 00:37 160 1 gusting 1 19.4
2019-Dec-07 00:32 158 1 gusting 1 19.4
2019-Dec-07 00:27 151 1 gusting 1 20.0
2019-Dec-07 00:22 130 0 gusting 1 20.0
2019-Dec-07 00:17 081 20.0
2019-Dec-07 00:12 146 0 gusting 1 20.0
2019-Dec-07 00:07 147 0 gusting 1 20.0
2019-Dec-07 00:02 327 0 gusting 1 20.0
2019-Dec-06 23:57 193 0 gusting 1 20.6
2019-Dec-06 23:52 158 0 gusting 1 20.6
2019-Dec-06 23:47 069 0 gusting 1 20.6
2019-Dec-06 23:42 083 1 gusting 1 20.6
2019-Dec-06 23:37 130 1 gusting 1 20.6
2019-Dec-06 23:32 154 1 gusting 1 20.6
2019-Dec-06 23:27 175 1 gusting 1 20.6
2019-Dec-06 23:22 145 1 gusting 1 20.6
2019-Dec-06 23:17 153 1 gusting 1 21.1
2019-Dec-06 23:12 167 1 gusting 1 21.1
2019-Dec-06 23:07 156 0 gusting 1 21.1
2019-Dec-06 23:02 095 0 gusting 1 21.1